[[{"header":{"parameterUnit":"m.s-1","parameterCategory":1,"la1":30.2991,"la2":30.254,"lo1":-89.0895,"lo2":-89.0444,"dy":0.0017,"dx":0.0017,"nx":28,"ny":28,"refTime":"2024-05-03T21:00:00:Z","depth":0,"parameterNumber":2,"parameterNumberName":"U-component_of_WINDS"},"data":[0,0,0,0,0,0,0,0,0,0,0,0,0,0,0,0,0,0,0,0,0,0,0,0,0,0,0,0,0,0,0,0,0,0,0,0,0,0,0,0,0,0,0,0,0,0,0,0,0,0,0,0,0,0,0,0,0,0,-1.5297,-1.5297,0,-1.5304,-1.5304,-1.5304,-1.5303,-1.5303,-1.5303,-1.5303,-1.531,-1.5311,-1.5311,0,0,0,0,0,0,0,0,0,0,0,0,0,-1.5285,-1.5285,-1.5297,-1.5297,-1.5297,-1.5304,-1.5304,-1.5304,-1.5303,-1.5303,-1.5303,-1.5303,-1.531,-1.531,-1.5311,0,0,0,0,0,0,0,0,0,0,0,0,0,-1.5291,-1.5285,-1.5297,-1.5298,-1.5298,-1.5304,-1.5304,-1.5304,-1.5303,-1.5303,-1.5303,-1.5303,-1.531,-1.531,-1.5311,-1.5317,0,0,-1.5312,-1.5312,0,0,0,0,0,0,0,0,-1.529,-1.5291,-1.5298,-1.5298,-1.5298,-1.5303,-1.5302,-1.5308,-1.5303,-1.5301,-1.5303,-1.5303,-1.5308,-1.5308,-1.531,-1.5317,-1.5317,-1.5312,-1.5312,-1.5313,-1.5313,0,0,0,0,0,0,0,-1.529,-1.5291,-1.53,-1.5298,-1.5298,-1.5298,-1.5299,-1.5303,-1.5305,-1.5302,-1.5301,-1.5302,-1.5308,-1.531,-1.531,-1.5318,-1.5312,-1.5313,-1.5313,-1.5313,-1.5331,-1.5331,0,0,0,0,0,0,-1.5289,-1.5291,-1.53,-1.53,-1.5294,-1.5298,-1.5299,-1.5301,-1.5305,-1.5306,-1.5302,-1.5302,-1.5309,-1.531,-1.531,-1.5318,-1.5313,-1.5313,-1.5313,-1.5331,-1.5331,-1.5331,0,0,0,0,0,0,-1.5289,-1.529,-1.5299,-1.5295,-1.5297,-1.5299,-1.5301,-1.5302,-1.5303,-1.5306,-1.5306,-1.5304,-1.5309,-1.531,-1.5315,-1.5318,-1.5313,-1.5314,-1.533,-1.5331,-1.5331,-1.5333,0,0,0,0,0,0,-1.5289,-1.529,-1.5292,-1.5295,-1.5297,-1.5304,-1.5301,-1.5302,-1.5304,-1.5304,-1.5307,-1.5308,-1.5309,-1.5315,-1.5316,-1.5319,-1.5314,-1.533,-1.5331,-1.5331,-1.5333,-1.5333,-1.5334,0,0,0,0,0,-1.5288,-1.5292,-1.5292,-1.5293,-1.5299,-1.5304,-1.5305,-1.5306,-1.5304,-1.5306,-1.5308,-1.5308,-1.5318,-1.5315,-1.5317,-1.532,-1.533,-1.5331,-1.5331,-1.5332,-1.5333,-1.5334,0,0,0,0,0,0,-1.5289,-1.5292,-1.5292,-1.5297,-1.53,-1.5304,-1.5306,-1.5306,-1.531,-1.531,-1.5311,-1.5312,-1.5317,-1.5319,-1.5316,-1.5326,-1.5324,-1.5325,-1.5325,-1.5325,-1.5326,-1.5325,-1.5314,0,0,0,0,0,-1.5289,-1.5293,-1.5296,-1.53,-1.5302,-1.5304,-1.5306,-1.5307,-1.531,-1.5311,-1.5313,-1.5317,-1.5321,-1.5323,-1.5327,-1.5333,-1.5335,-1.5336,-1.5337,-1.5337,-1.5338,-1.5342,-1.5343,-1.5333,-1.5333,-1.5333,0,0,-1.5291,-1.5293,-1.5295,-1.53,-1.5303,-1.5306,-1.5305,-1.5309,-1.5312,-1.5312,-1.5317,-1.5319,-1.5323,-1.5329,-1.5332,-1.5331,-1.5341,-1.5338,-1.5338,-1.5339,-1.5343,-1.5344,-1.5345,-1.5333,-1.5333,-1.5333,0,0,-1.5295,-1.5297,-1.5301,-1.5304,-1.5308,-1.5309,-1.531,-1.5314,-1.5315,-1.5321,-1.5321,-1.5325,-1.5332,-1.5335,-1.5337,-1.5344,-1.5344,-1.5346,-1.5349,-1.5353,-1.5354,-1.5354,-1.5357,-1.5358,-1.5346,-1.5346,-1.5346,0,-1.5296,-1.5301,-1.5303,-1.5307,-1.531,-1.531,-1.5315,-1.5317,-1.5322,-1.5324,-1.5323,-1.5332,-1.5335,-1.5342,-1.5344,-1.5346,-1.5347,-1.5345,-1.5353,-1.5354,-1.5355,-1.5357,-1.5358,-1.5347,-1.5347,-1.5347,-1.5347,0,-1.5303,-1.5307,-1.531,-1.5315,-1.5318,-1.5322,-1.5324,-1.5327,-1.5328,-1.533,-1.5337,-1.534,-1.5345,-1.5347,-1.5348,-1.5355,-1.5354,-1.5353,-1.5351,-1.5356,-1.5358,-1.5359,-1.5347,-1.5347,-1.5347,-1.5347,0,0,-1.5306,-1.5313,-1.5314,-1.5317,-1.5322,-1.5325,-1.533,-1.5335,-1.5337,-1.5341,-1.5345,-1.5352,-1.5352,-1.5354,-1.5356,-1.5359,-1.5365,-1.5358,-1.5358,-1.5359,-1.5374,-1.5374,-1.5375,-1.5366,-1.5366,-1.5366,-1.5373,0,-1.5311,-1.5319,-1.5321,-1.5328,-1.5332,-1.5334,-1.5338,-1.5342,-1.5344,-1.5348,-1.5351,-1.5356,-1.5355,-1.5357,-1.5361,-1.5364,-1.5368,-1.5363,-1.537,-1.537,-1.5368,-1.5376,-1.5376,-1.5383,-1.5374,-1.5374,-1.5375,0,-1.5317,-1.5322,-1.5329,-1.5334,-1.5336,-1.534,-1.5345,-1.5349,-1.5354,-1.5355,-1.5359,-1.536,-1.5366,-1.5364,-1.5372,-1.5369,-1.5372,-1.5374,-1.5375,-1.5375,-1.5372,-1.5376,-1.5385,-1.5386,-1.5376,-1.5376,-1.5376,0,-1.5319,-1.5327,-1.5332,-1.5335,-1.5341,-1.5344,-1.5346,-1.5351,-1.5354,-1.5359,-1.5361,-1.5367,-1.537,-1.5374,-1.5377,-1.5376,-1.5386,-1.5384,-1.5387,-1.5387,-1.5389,-1.5388,-1.5397,-1.5391,-1.5391,-1.5391,-1.5391,0,-1.5324,-1.5329,-1.5333,-1.5337,-1.5342,-1.5345,-1.5351,-1.5354,-1.5358,-1.5362,-1.5364,-1.5368,-1.5372,-1.5377,-1.538,-1.5387,-1.5388,-1.539,-1.539,-1.5389,-1.5389,-1.5391,-1.539,-1.5391,-1.5391,-1.5391,-1.5391,0,-1.5327,-1.533,-1.5336,-1.5342,-1.5344,-1.5347,-1.5353,-1.5356,-1.5359,-1.5365,-1.5366,-1.5371,-1.5377,-1.5381,-1.5389,-1.5391,-1.5398,-1.5398,-1.5396,-1.5396,-1.54,-1.5399,-1.541,-1.5411,-1.5405,-1.5405,-1.5405,0,-1.5329,-1.5333,-1.5339,-1.5342,-1.5345,-1.535,-1.5353,-1.5357,-1.536,-1.5367,-1.537,-1.5376,-1.5381,-1.5391,-1.5395,-1.5402,-1.5402,-1.5406,-1.5403,-1.5402,-1.5402,-1.5402,-1.5402,-1.5406,-1.5406,-1.5406,-1.5406,0,-1.5334,-1.5336,-1.534,-1.5346,-1.535,-1.5354,-1.5359,-1.5361,-1.5366,-1.537,-1.5376,-1.538,-1.5388,-1.5395,-1.5402,-1.5405,-1.5406,-1.5407,-1.5408,-1.5407,-1.5405,-1.5406,-1.5397,-1.5406,-1.5406,-1.5406,-1.5406,-1.5406,-1.5337,-1.534,-1.5345,-1.535,-1.5354,-1.5359,-1.5363,-1.5367,-1.5372,-1.5378,-1.5381,-1.5387,-1.5393,-1.5402,-1.5406,-1.5412,-1.5411,-1.5413,-1.5413,-1.5414,-1.5414,-1.5405,-1.5413,-1.5413,-1.5413,-1.5413,-1.5413,0,-1.5341,-1.5345,-1.535,-1.5356,-1.5361,-1.5362,-1.5367,-1.5371,-1.5377,-1.5382,-1.5387,-1.5395,-1.5401,-1.5407,-1.5413,-1.5417,-1.5418,-1.5419,-1.5418,-1.5419,-1.5414,-1.5412,-1.5418,-1.5418,-1.5418,-1.5418,-1.5418,-1.5418,-1.5344,-1.535,-1.5352,-1.5361,-1.5364,-1.5371,-1.5374,-1.5378,-1.5382,-1.5391,-1.5396,-1.54,-1.5405,-1.5413,-1.5419,-1.5421,-1.5423,-1.5424,-1.5425,-1.542,-1.5419,-1.5419,-1.5417,-1.5424,-1.5424,-1.543,-1.543,-1.543]},{"header":{"parameterUnit":"m.s-1","parameterCategory":1,"la1":30.2991,"la2":30.254,"lo1":-89.0895,"lo2":-89.0444,"dy":0.0017,"dx":0.0017,"nx":28,"ny":28,"refTime":"2024-05-03T21:00:00:Z","depth":0,"parameterNumber":3,"parameterNumberName":"V-component_of_WINDS"},"data":[0,0,0,0,0,0,0,0,0,0,0,0,0,0,0,0,0,0,0,0,0,0,0,0,0,0,0,0,0,0,0,0,0,0,0,0,0,0,0,0,0,0,0,0,0,0,0,0,0,0,0,0,0,0,0,0,0,0,3.034,3.034,0,3.0303,3.0302,3.0302,3.0322,3.0323,3.0324,3.0325,3.0281,3.0279,3.0277,0,0,0,0,0,0,0,0,0,0,0,0,0,3.0426,3.0424,3.034,3.034,3.034,3.0303,3.0302,3.0302,3.0322,3.0323,3.0324,3.0325,3.0282,3.028,3.0277,0,0,0,0,0,0,0,0,0,0,0,0,0,3.0389,3.0424,3.0341,3.0345,3.0345,3.0303,3.0302,3.0302,3.0321,3.0323,3.0324,3.0326,3.0283,3.028,3.0277,3.0227,0,0,3.0267,3.0266,0,0,0,0,0,0,0,0,3.0391,3.0385,3.0345,3.0345,3.0345,3.0319,3.0317,3.0276,3.0321,3.033,3.0325,3.0327,3.0292,3.0288,3.0278,3.0225,3.0223,3.0267,3.0265,3.0264,3.0263,0,0,0,0,0,0,0,3.0393,3.0387,3.0325,3.0344,3.0344,3.0348,3.0344,3.0309,3.0303,3.0329,3.0331,3.0326,3.0292,3.0281,3.0277,3.0222,3.0267,3.0264,3.0262,3.0261,3.0127,3.0125,0,0,0,0,0,0,3.0396,3.0389,3.0327,3.0324,3.0372,3.0345,3.0341,3.0325,3.0303,3.0302,3.0325,3.0327,3.0285,3.0281,3.0276,3.0216,3.0264,3.0261,3.0259,3.0129,3.0127,3.0125,0,0,0,0,0,0,3.0398,3.039,3.0328,3.0357,3.035,3.0342,3.0324,3.0324,3.0312,3.03,3.0299,3.0315,3.0286,3.028,3.0239,3.0214,3.0259,3.0256,3.0131,3.0128,3.0126,3.0095,0,0,0,0,0,0,3.04,3.0391,3.0372,3.0357,3.0348,3.0293,3.0323,3.0322,3.0307,3.031,3.029,3.0288,3.0287,3.0244,3.0236,3.0211,3.0254,3.0133,3.0129,3.0126,3.0098,3.0092,3.0087,0,0,0,0,0,3.0403,3.0364,3.0371,3.0364,3.0325,3.0292,3.0287,3.0288,3.0305,3.0286,3.0279,3.0289,3.0219,3.024,3.0231,3.0204,3.0134,3.013,3.0127,3.0101,3.0093,3.0087,0,0,0,0,0,0,3.0374,3.0362,3.037,3.0324,3.0309,3.0295,3.0271,3.0279,3.0258,3.0261,3.0262,3.0257,3.0215,3.0206,3.0229,3.0155,3.0179,3.0173,3.0162,3.0155,3.0149,3.0151,3.0251,0,0,0,0,0,3.0363,3.0339,3.0329,3.029,3.0282,3.0278,3.0263,3.0266,3.025,3.0243,3.0232,3.0215,3.0189,3.0172,3.0147,3.0098,3.0094,3.0076,3.007,3.0065,3.0059,3.0033,3.0025,3.0112,3.0112,3.0113,0,0,3.0339,3.0329,3.0313,3.0284,3.0272,3.0246,3.0272,3.0243,3.0223,3.0238,3.0199,3.0191,3.0172,3.0127,3.0106,3.0117,3.0035,3.006,3.0057,3.0053,3.0028,3.002,3.0013,3.011,3.011,3.0111,0,0,3.0281,3.0271,3.0238,3.0227,3.021,3.0208,3.02,3.0186,3.0181,3.0143,3.0154,3.013,3.0086,3.0072,3.0059,2.9999,3.0007,2.9991,2.9959,2.9933,2.9926,2.992,2.9898,2.989,2.9986,2.9986,2.9986,0,3.0252,3.0214,3.0219,3.019,3.0176,3.0192,3.0158,3.0146,3.0121,3.0111,3.0125,3.0071,3.0059,3.0011,2.9997,2.9986,2.9977,2.9992,2.9927,2.9921,2.9915,2.9894,2.9886,2.9984,2.9984,2.9984,2.9984,0,3.0179,3.0153,3.0128,3.0106,3.009,3.0058,3.0058,3.0041,3.0046,3.0043,3.0004,2.9991,2.9964,2.9954,2.9957,2.9906,2.9914,2.9928,2.9951,2.9905,2.9885,2.9877,2.9981,2.9982,2.9982,2.9983,0,0,3.0099,3.0083,3.0073,3.0064,3.0048,3.0027,2.9997,2.9973,2.9958,2.9942,2.9915,2.9879,2.9892,2.9877,2.988,2.9858,2.9811,2.9874,2.9873,2.9862,2.9754,2.9742,2.9733,2.9817,2.9816,2.9814,2.9755,0,3.0039,2.9987,2.9992,2.9942,2.9917,2.9933,2.9906,2.9893,2.9889,2.9868,2.9863,2.9837,2.9857,2.9848,2.9827,2.9821,2.9789,2.9825,2.9791,2.979,2.9794,2.9723,2.971,2.9655,2.9747,2.9746,2.9745,0,2.9962,2.9945,2.9892,2.9882,2.9872,2.9848,2.9827,2.9806,2.9792,2.9791,2.9776,2.9783,2.9752,2.9778,2.9734,2.9759,2.9746,2.9741,2.9739,2.9734,2.9763,2.9715,2.9637,2.9628,2.9733,2.9734,2.9735,0,2.9908,2.9872,2.9836,2.9828,2.9814,2.9797,2.9791,2.9778,2.9764,2.9746,2.9737,2.9715,2.9702,2.9684,2.9685,2.9704,2.9641,2.9667,2.9638,2.9638,2.9622,2.9622,2.9539,2.9616,2.9616,2.9616,2.9616,0,2.9839,2.9806,2.9812,2.9789,2.9753,2.976,2.9724,2.9719,2.9708,2.9685,2.9697,2.9675,2.9678,2.9655,2.9656,2.9619,2.9614,2.9611,2.9611,2.9609,2.9609,2.9599,2.9602,2.9614,2.9614,2.9615,2.9615,0,2.9771,2.9774,2.9736,2.9728,2.9725,2.9699,2.9691,2.967,2.9669,2.9639,2.9633,2.963,2.9604,2.9604,2.9574,2.9575,2.953,2.9535,2.9535,2.9535,2.9506,2.9509,2.9412,2.94,2.9485,2.9485,2.9484,0,2.9727,2.9703,2.9693,2.9679,2.9672,2.9649,2.9636,2.9642,2.9627,2.961,2.9591,2.9567,2.9548,2.9506,2.9501,2.9478,2.9482,2.945,2.9478,2.9478,2.948,2.9481,2.9479,2.9444,2.9443,2.9442,2.9441,0,2.9648,2.9651,2.9631,2.9613,2.9597,2.9582,2.9569,2.9557,2.9561,2.9544,2.9519,2.9505,2.9476,2.9451,2.943,2.9422,2.9432,2.9433,2.9425,2.9422,2.9422,2.9421,2.9518,2.9434,2.9435,2.9436,2.9436,2.9436,2.9589,2.9569,2.9559,2.9538,2.9529,2.9517,2.9497,2.9494,2.9474,2.9452,2.9457,2.9429,2.9416,2.9389,2.938,2.9357,2.9368,2.9357,2.9354,2.935,2.9347,2.9428,2.9354,2.9354,2.9354,2.9354,2.9354,0,2.951,2.9505,2.9486,2.9468,2.9451,2.9465,2.9451,2.9436,2.9411,2.94,2.9382,2.9353,2.9331,2.9325,2.9303,2.9286,2.929,2.928,2.928,2.9278,2.9339,2.9347,2.9277,2.9277,2.9277,2.9277,2.9277,2.9277,2.9466,2.9433,2.9435,2.9397,2.9392,2.9366,2.9357,2.9346,2.9337,2.9305,2.9287,2.9284,2.9275,2.9253,2.9233,2.9231,2.9222,2.921,2.921,2.9266,2.9274,2.9281,2.929,2.9208,2.9208,2.9152,2.9151,2.9151]}]]